This is the latest recevied weather packets stored in our database for station/object WD0REW. If no packets are shown the sender has not sent any weather packets the latest 10 day(s).
| Time | Temp. | Humidity | Pressure | Rain* | Wind** | Luminosity | Snow |
|---|---|---|---|---|---|---|---|
| 1778077556 | 9.44° C | 71% | 1017.8 hPa | 0 mm | - | 193 W/m² | - |
| 1778077254 | 8.89° C | 70% | 1017.9 hPa | 0 mm | - | 207 W/m² | - |
| 1778076951 | 8.89° C | 72% | 1017.8 hPa | 0 mm | - | 162 W/m² | - |
| 1778076650 | 8.89° C | 74% | 1018 hPa | 0 mm | - | 143 W/m² | - |
| 1778076347 | 8.89° C | 74% | 1017.8 hPa | 0 mm | - | 204 W/m² | - |
| 1778076044 | 8.89° C | 74% | 1017.7 hPa | 0 mm | - | 157 W/m² | - |
| 1778075741 | 8.89° C | 74% | 1017.6 hPa | 0 mm | - | 106 W/m² | - |
| 1778075437 | 9.44° C | 72% | 1017.7 hPa | 0 mm | - | 98 W/m² | - |
| 1778075133 | 9.44° C | 75% | 1017.4 hPa | 0 mm | - | 129 W/m² | - |
| 1778074829 | 8.89° C | 78% | 1017.4 hPa | 0 mm | - | 154 W/m² | - |
| 1778074527 | 8.89° C | 78% | 1017.2 hPa | 0 mm | - | 166 W/m² | - |
| 1778074224 | 8.33° C | 79% | 1017.2 hPa | 0 mm | - | 236 W/m² | - |
| 1778073921 | 8.33° C | 83% | 1017.6 hPa | 0 mm | - | 121 W/m² | - |
| 1778073618 | 7.78° C | 84% | 1017.4 hPa | 0 mm | - | 103 W/m² | - |
| 1778073315 | 7.78° C | 84% | 1017.4 hPa | 0 mm | - | 97 W/m² | - |
| 1778073012 | 7.78° C | 84% | 1017.6 hPa | 0 mm | - | 70 W/m² | - |
| 1778072708 | 7.78° C | 85% | 1017.9 hPa | 0 mm | - | 71 W/m² | - |
| 1778072406 | 7.78° C | 85% | 1017.8 hPa | 0 mm | - | 61 W/m² | - |
| 1778072104 | 7.78° C | 86% | 1017.6 hPa | 0 mm | - | 52 W/m² | - |
| 1778071801 | 7.22° C | 86% | 1017.8 hPa | 0 mm | - | 46 W/m² | - |
| 1778071499 | 7.22° C | 86% | 1017.8 hPa | 0 mm | - | 40 W/m² | - |
| 1778071197 | 7.22° C | 86% | 1017.9 hPa | 0 mm | - | 38 W/m² | - |
| 1778070895 | 7.22° C | 86% | 1018 hPa | 0 mm | - | 22 W/m² | - |
| 1778070592 | 7.22° C | 87% | 1018.2 hPa | 0 mm | - | 21 W/m² | - |
| 1778070289 | 7.22° C | 87% | 1017.6 hPa | 0 mm | - | 17 W/m² | - |
* Rain latest hour (hover to see other rain measurements)
** Current wind speed in m/s (hover to see current wind gust speed)